Tabellarische Ansicht des 25.9.2020


Die einzelnen Werte des Tages

Uhrzeit Temperatur Luftdruck Luftfeuchte Wind Hi-Wind Taupunkt THW Index Wind Chill Heat Index Solar- strahlung Regen

00:00

13.9 C

995.1 hpa

67 %

0.0 km/h aus 100

3.2 km/h aus ESE

7.9 C

13.4 C

13.9 C

13.4 C

0 W/m

0.00 mm

00:05

13.8 C

995.1 hpa

67 %

0.0 km/h aus 96

3.2 km/h aus SE

7.8 C

13.3 C

13.8 C

13.3 C

0 W/m

0.00 mm

00:10

13.8 C

995.1 hpa

67 %

0.0 km/h aus 96

1.6 km/h aus ESE

7.8 C

13.3 C

13.8 C

13.3 C

0 W/m

0.00 mm

00:15

13.8 C

994.8 hpa

67 %

1.6 km/h aus 94

3.2 km/h aus ESE

7.8 C

13.3 C

13.8 C

13.3 C

0 W/m

0.00 mm

00:20

13.7 C

994.8 hpa

68 %

1.6 km/h aus 93

4.8 km/h aus ESE

7.9 C

13.2 C

13.7 C

13.2 C

0 W/m

0.00 mm

00:25

13.7 C

994.8 hpa

68 %

0.0 km/h aus 94

1.6 km/h aus ESE

7.9 C

13.2 C

13.7 C

13.2 C

0 W/m

0.00 mm

00:30

13.7 C

994.5 hpa

69 %

0.0 km/h aus 94

0.0 km/h aus ---

8.1 C

13.2 C

13.7 C

13.2 C

0 W/m

0.00 mm

00:35

13.6 C

994.5 hpa

69 %

0.0 km/h aus 94

0.0 km/h aus ---

8.0 C

13.2 C

13.6 C

13.2 C

0 W/m

0.00 mm

00:40

13.6 C

994.5 hpa

69 %

0.0 km/h aus 92

0.0 km/h aus ---

8.0 C

13.1 C

13.6 C

13.1 C

0 W/m

0.00 mm

00:45

13.6 C

994.5 hpa

71 %

1.6 km/h aus 93

4.8 km/h aus ESE

8.4 C

13.1 C

13.6 C

13.1 C

0 W/m

0.00 mm

00:50

13.6 C

994.5 hpa

72 %

3.2 km/h aus 93

8.0 km/h aus E

8.7 C

13.2 C

13.6 C

13.2 C

0 W/m

0.00 mm

00:55

13.7 C

994.5 hpa

73 %

3.2 km/h aus 93

6.4 km/h aus E

8.9 C

13.3 C

13.7 C

13.3 C

0 W/m

0.00 mm

01:00

13.8 C

994.1 hpa

73 %

3.2 km/h aus 90

8.0 km/h aus ESE

9.0 C

13.4 C

13.8 C

13.4 C

0 W/m

0.00 mm

01:05

13.9 C

994.1 hpa

74 %

3.2 km/h aus 91

9.7 km/h aus E

9.3 C

13.6 C

13.9 C

13.6 C

0 W/m

0.00 mm

01:10

13.9 C

994.1 hpa

74 %

4.8 km/h aus 94

14.5 km/h aus E

9.4 C

13.6 C

13.9 C

13.6 C

0 W/m

0.00 mm

01:15

14.0 C

994.0 hpa

74 %

3.2 km/h aus 93

9.7 km/h aus E

9.4 C

13.7 C

14.0 C

13.7 C

0 W/m

0.00 mm

01:20

14.1 C

994.0 hpa

74 %

3.2 km/h aus 92

8.0 km/h aus ESE

9.5 C

13.7 C

14.1 C

13.7 C

0 W/m

0.00 mm

01:25

14.1 C

994.0 hpa

74 %

3.2 km/h aus 87

8.0 km/h aus ESE

9.5 C

13.7 C

14.1 C

13.7 C

0 W/m

0.00 mm

01:30

14.1 C

993.8 hpa

74 %

1.6 km/h aus 91

9.7 km/h aus SE

9.5 C

13.8 C

14.1 C

13.8 C

0 W/m

0.00 mm

01:35

14.1 C

993.8 hpa

75 %

3.2 km/h aus 86

8.0 km/h aus SE

9.7 C

13.8 C

14.1 C

13.8 C

0 W/m

0.00 mm

01:40

14.1 C

993.8 hpa

75 %

3.2 km/h aus 84

8.0 km/h aus ESE

9.7 C

13.8 C

14.1 C

13.8 C

0 W/m

0.00 mm

01:45

14.1 C

993.8 hpa

75 %

4.8 km/h aus 87

14.5 km/h aus SE

9.7 C

13.8 C

14.1 C

13.8 C

0 W/m

0.00 mm

01:50

14.2 C

993.8 hpa

75 %

3.2 km/h aus 88

9.7 km/h aus SE

9.8 C

13.9 C

14.2 C

13.9 C

0 W/m

0.00 mm

01:55

14.2 C

993.8 hpa

75 %

3.2 km/h aus 89

11.3 km/h aus SE

9.8 C

13.9 C

14.2 C

13.9 C

0 W/m

0.00 mm

02:00

14.2 C

993.5 hpa

76 %

4.8 km/h aus 93

14.5 km/h aus ESE

10.0 C

14.0 C

14.2 C

14.0 C

0 W/m

0.00 mm

02:05

14.3 C

993.5 hpa

76 %

4.8 km/h aus 81

16.1 km/h aus ESE

10.1 C

14.1 C

14.3 C

14.1 C

0 W/m

0.00 mm

02:10

14.3 C

993.5 hpa

76 %

4.8 km/h aus 95

16.1 km/h aus SE

10.1 C

14.1 C

14.3 C

14.1 C

0 W/m

0.00 mm

02:15

14.4 C

993.4 hpa

76 %

4.8 km/h aus 94

14.5 km/h aus SE

10.2 C

14.2 C

14.4 C

14.2 C

0 W/m

0.00 mm

02:20

14.4 C

993.4 hpa

76 %

4.8 km/h aus 97

14.5 km/h aus SE

10.2 C

14.2 C

14.4 C

14.2 C

0 W/m

0.00 mm

02:25

14.4 C

993.4 hpa

76 %

6.4 km/h aus 95

16.1 km/h aus ESE

10.3 C

14.2 C

14.4 C

14.2 C

0 W/m

0.00 mm

02:30

14.5 C

993.4 hpa

76 %

6.4 km/h aus 96

22.5 km/h aus SSE

10.3 C

14.3 C

14.5 C

14.3 C

0 W/m

0.00 mm

02:35

14.6 C

993.4 hpa

76 %

4.8 km/h aus 91

14.5 km/h aus ESE

10.4 C

14.3 C

14.6 C

14.3 C

0 W/m

0.00 mm

02:40

14.6 C

993.4 hpa

75 %

3.2 km/h aus 82

14.5 km/h aus ESE

10.2 C

14.3 C

14.6 C

14.3 C

0 W/m

0.00 mm

02:45

14.6 C

993.1 hpa

75 %

6.4 km/h aus 97

16.1 km/h aus ESE

10.2 C

14.3 C

14.6 C

14.3 C

0 W/m

0.00 mm

02:50

14.7 C

993.1 hpa

75 %

6.4 km/h aus 93

16.1 km/h aus ESE

10.3 C

14.4 C

14.7 C

14.4 C

0 W/m

0.00 mm

02:55

14.7 C

993.1 hpa

76 %

8.0 km/h aus 94

19.3 km/h aus SE

10.5 C

14.3 C

14.6 C

14.5 C

0 W/m

0.00 mm

03:00

14.8 C

993.0 hpa

76 %

8.0 km/h aus 100

22.5 km/h aus SE

10.6 C

14.4 C

14.6 C

14.6 C

0 W/m

0.00 mm

03:05

14.8 C

993.0 hpa

75 %

6.4 km/h aus 96

19.3 km/h aus ESE

10.4 C

14.6 C

14.8 C

14.6 C

0 W/m

0.00 mm

03:10

14.9 C

993.0 hpa

75 %

9.7 km/h aus 95

19.3 km/h aus SE

10.5 C

14.3 C

14.6 C

14.6 C

0 W/m

0.00 mm

03:15

14.9 C

992.9 hpa

75 %

6.4 km/h aus 90

17.7 km/h aus ESE

10.5 C

14.7 C

14.9 C

14.7 C

0 W/m

0.00 mm

03:20

15.0 C

992.9 hpa

75 %

6.4 km/h aus 90

19.3 km/h aus SE

10.6 C

14.7 C

15.0 C

14.7 C

0 W/m

0.00 mm

03:25

15.0 C

992.9 hpa

75 %

4.8 km/h aus 90

14.5 km/h aus ESE

10.6 C

14.7 C

15.0 C

14.7 C

0 W/m

0.00 mm

03:30

15.0 C

992.9 hpa

75 %

4.8 km/h aus 82

16.1 km/h aus SE

10.6 C

14.7 C

15.0 C

14.7 C

0 W/m

0.00 mm

03:35

15.0 C

992.9 hpa

75 %

4.8 km/h aus 86

12.9 km/h aus ESE

10.6 C

14.7 C

15.0 C

14.7 C

0 W/m

0.00 mm

03:40

15.1 C

992.9 hpa

75 %

4.8 km/h aus 81

16.1 km/h aus ESE

10.7 C

14.8 C

15.1 C

14.8 C

0 W/m

0.00 mm

03:45

15.1 C

992.6 hpa

75 %

4.8 km/h aus 101

16.1 km/h aus ESE

10.7 C

14.8 C

15.1 C

14.8 C

0 W/m

0.00 mm

03:50

15.1 C

992.6 hpa

75 %

6.4 km/h aus 91

16.1 km/h aus ESE

10.7 C

14.8 C

15.1 C

14.8 C

0 W/m

0.00 mm

03:55

15.1 C

992.6 hpa

75 %

6.4 km/h aus 100

19.3 km/h aus SE

10.7 C

14.8 C

15.1 C

14.8 C

0 W/m

0.00 mm

04:00

15.1 C

992.5 hpa

75 %

4.8 km/h aus 99

19.3 km/h aus SE

10.7 C

14.8 C

15.1 C

14.8 C

0 W/m

0.00 mm

04:05

15.1 C

992.5 hpa

75 %

6.4 km/h aus 90

17.7 km/h aus ESE

10.7 C

14.8 C

15.1 C

14.8 C

0 W/m

0.00 mm

04:10

15.1 C

992.5 hpa

75 %

4.8 km/h aus 85

17.7 km/h aus ESE

10.7 C

14.8 C

15.1 C

14.8 C

0 W/m

0.00 mm

04:15

15.1 C

992.5 hpa

75 %

3.2 km/h aus 93

16.1 km/h aus SSE

10.7 C

14.8 C

15.1 C

14.8 C

0 W/m

0.00 mm

04:20

15.2 C

992.5 hpa

76 %

4.8 km/h aus 111

17.7 km/h aus ESE

11.0 C

14.9 C

15.2 C

14.9 C

0 W/m

0.00 mm

04:25

15.2 C

992.5 hpa

77 %

8.0 km/h aus 115

22.5 km/h aus ESE

11.2 C

14.9 C

15.1 C

14.9 C

0 W/m

0.00 mm

04:30

15.1 C

992.4 hpa

77 %

9.7 km/h aus 114

19.3 km/h aus SE

11.1 C

14.5 C

14.7 C

14.8 C

0 W/m

0.00 mm

04:35

15.1 C

992.4 hpa

77 %

6.4 km/h aus 109

16.1 km/h aus SE

11.1 C

14.8 C

15.1 C

14.8 C

0 W/m

0.00 mm

04:40

14.9 C

992.4 hpa

78 %

4.8 km/h aus 114

20.9 km/h aus SE

11.1 C

14.8 C

14.9 C

14.8 C

0 W/m

0.00 mm

04:45

14.9 C

992.0 hpa

78 %

6.4 km/h aus 104

16.1 km/h aus SSE

11.1 C

14.8 C

14.9 C

14.8 C

0 W/m

0.00 mm

04:50

14.9 C

992.0 hpa

78 %

4.8 km/h aus 109

14.5 km/h aus SE

11.1 C

14.7 C

14.9 C

14.7 C

0 W/m

0.00 mm

04:55

14.9 C

992.0 hpa

78 %

4.8 km/h aus 116

17.7 km/h aus SE

11.1 C

14.7 C

14.9 C

14.7 C

0 W/m

0.25 mm

05:00

14.8 C

992.1 hpa

79 %

8.0 km/h aus 113

19.3 km/h aus ESE

11.2 C

14.5 C

14.7 C

14.7 C

0 W/m

0.00 mm

05:05

14.8 C

992.1 hpa

79 %

6.4 km/h aus 110

19.3 km/h aus ESE

11.2 C

14.7 C

14.8 C

14.7 C

0 W/m

0.00 mm

05:10

14.8 C

992.1 hpa

79 %

8.0 km/h aus 113

17.7 km/h aus SSE

11.2 C

14.4 C

14.6 C

14.6 C

0 W/m

0.00 mm

05:15

14.8 C

992.4 hpa

80 %

11.3 km/h aus 115

27.4 km/h aus SSE

11.4 C

14.1 C

14.2 C

14.7 C

0 W/m

0.00 mm

05:20

14.4 C

992.4 hpa

79 %

16.1 km/h aus 116

38.6 km/h aus SW

10.8 C

12.4 C

12.6 C

14.3 C

0 W/m

0.00 mm

05:25

13.9 C

992.4 hpa

79 %

14.5 km/h aus 117

30.6 km/h aus S

10.3 C

12.1 C

12.3 C

13.7 C

0 W/m

0.00 mm

05:30

13.5 C

993.0 hpa

80 %

9.7 km/h aus 114

24.1 km/h aus SW

10.1 C

12.7 C

12.9 C

13.3 C

0 W/m

0.00 mm

05:35

13.3 C

993.0 hpa

81 %

6.4 km/h aus 116

22.5 km/h aus SW

10.1 C

13.0 C

13.2 C

13.1 C

0 W/m

0.00 mm

05:40

13.1 C

993.0 hpa

82 %

8.0 km/h aus 117

17.7 km/h aus SSW

10.1 C

12.6 C

12.7 C

13.0 C

0 W/m

0.00 mm

05:45

12.9 C

993.0 hpa

83 %

6.4 km/h aus 117

16.1 km/h aus S

10.1 C

12.7 C

12.8 C

12.8 C

0 W/m

0.00 mm

05:50

12.8 C

993.0 hpa

83 %

8.0 km/h aus 117

17.7 km/h aus S

10.0 C

12.2 C

12.3 C

12.7 C

0 W/m

0.00 mm

05:55

12.7 C

993.0 hpa

83 %

4.8 km/h aus 114

12.9 km/h aus SSW

9.9 C

12.6 C

12.7 C

12.6 C

0 W/m

0.00 mm

06:00

12.7 C

993.0 hpa

84 %

4.8 km/h aus 116

9.7 km/h aus SSW

10.0 C

12.6 C

12.7 C

12.6 C

0 W/m

0.00 mm

06:05

12.6 C

993.0 hpa

84 %

1.6 km/h aus 117

6.4 km/h aus S

10.0 C

12.6 C

12.6 C

12.6 C

0 W/m

0.00 mm

06:10

12.6 C

993.0 hpa

84 %

3.2 km/h aus 118

9.7 km/h aus S

9.9 C

12.5 C

12.6 C

12.5 C

0 W/m

0.00 mm

06:15

12.4 C

993.3 hpa

84 %

1.6 km/h aus 117

8.0 km/h aus SSE

9.8 C

12.4 C

12.4 C

12.4 C

0 W/m

0.00 mm

06:20

12.4 C

993.3 hpa

85 %

4.8 km/h aus 114

11.3 km/h aus SSE

10.0 C

12.4 C

12.4 C

12.4 C

0 W/m

0.00 mm

06:25

12.4 C

993.3 hpa

85 %

3.2 km/h aus 115

8.0 km/h aus SSE

9.9 C

12.3 C

12.4 C

12.3 C

0 W/m

0.00 mm

06:30

12.3 C

992.9 hpa

85 %

3.2 km/h aus 117

8.0 km/h aus S

9.8 C

12.2 C

12.3 C

12.2 C

0 W/m

0.00 mm

06:35

12.2 C

992.9 hpa

85 %

3.2 km/h aus 117

9.7 km/h aus SE

9.7 C

12.1 C

12.2 C

12.1 C

0 W/m

0.00 mm

06:40

12.2 C

992.9 hpa

85 %

3.2 km/h aus 117

9.7 km/h aus S

9.7 C

12.1 C

12.2 C

12.1 C

0 W/m

0.00 mm

06:45

12.1 C

992.8 hpa

86 %

4.8 km/h aus 114

12.9 km/h aus SSE

9.8 C

12.1 C

12.1 C

12.1 C

0 W/m

0.00 mm

06:50

12.1 C

992.8 hpa

86 %

6.4 km/h aus 113

16.1 km/h aus S

9.8 C

11.7 C

11.7 C

12.0 C

0 W/m

0.00 mm

06:55

12.1 C

992.8 hpa

86 %

8.0 km/h aus 117

14.5 km/h aus SSE

9.8 C

11.3 C

11.4 C

12.0 C

0 W/m

0.00 mm

07:00

12.0 C

992.9 hpa

86 %

4.8 km/h aus 117

11.3 km/h aus S

9.7 C

11.9 C

12.0 C

11.9 C

0 W/m

0.00 mm

07:05

12.0 C

992.9 hpa

86 %

1.6 km/h aus 117

14.5 km/h aus S

9.7 C

11.9 C

12.0 C

11.9 C

0 W/m

0.00 mm

07:10

11.9 C

992.9 hpa

86 %

4.8 km/h aus 116

11.3 km/h aus SSE

9.7 C

11.9 C

11.9 C

11.9 C

0 W/m

0.00 mm

07:15

11.9 C

992.9 hpa

86 %

8.0 km/h aus 114

16.1 km/h aus SSE

9.7 C

11.2 C

11.3 C

11.9 C

0 W/m

0.00 mm

07:20

11.9 C

992.9 hpa

86 %

4.8 km/h aus 117

14.5 km/h aus S

9.6 C

11.8 C

11.9 C

11.8 C

0 W/m

0.00 mm

07:25

11.9 C

992.9 hpa

87 %

3.2 km/h aus 117

8.0 km/h aus S

9.8 C

11.9 C

11.9 C

11.9 C

4 W/m

0.00 mm

07:30

11.8 C

992.9 hpa

87 %

4.8 km/h aus 117

11.3 km/h aus SSE

9.7 C

11.8 C

11.8 C

11.8 C

7 W/m

0.00 mm

07:35

11.8 C

992.9 hpa

87 %

6.4 km/h aus 116

14.5 km/h aus SSE

9.7 C

11.5 C

11.5 C

11.8 C

10 W/m

0.00 mm

07:40

11.8 C

992.9 hpa

87 %

8.0 km/h aus 114

17.7 km/h aus S

9.7 C

11.1 C

11.1 C

11.8 C

12 W/m

0.00 mm

07:45

11.8 C

992.9 hpa

87 %

8.0 km/h aus 116

17.7 km/h aus SSE

9.7 C

11.1 C

11.1 C

11.8 C

13 W/m

0.00 mm

07:50

11.7 C

992.9 hpa

87 %

3.2 km/h aus 116

14.5 km/h aus SSE

9.6 C

11.7 C

11.7 C

11.7 C

18 W/m

0.00 mm

07:55

11.7 C

992.9 hpa

87 %

6.4 km/h aus 116

17.7 km/h aus SSE

9.6 C

11.3 C

11.3 C

11.7 C

20 W/m

0.00 mm

08:00

11.7 C

993.0 hpa

87 %

6.4 km/h aus 117

17.7 km/h aus S

9.6 C

11.3 C

11.3 C

11.7 C

21 W/m

0.00 mm

08:05

11.7 C

993.0 hpa

87 %

3.2 km/h aus 114

11.3 km/h aus SSE

9.6 C

11.7 C

11.7 C

11.7 C

21 W/m

0.00 mm

08:10

11.7 C

993.0 hpa

87 %

6.4 km/h aus 115

16.1 km/h aus S

9.6 C

11.3 C

11.3 C

11.7 C

22 W/m

0.00 mm

08:15

11.7 C

993.3 hpa

87 %

6.4 km/h aus 117

16.1 km/h aus S

9.6 C

11.3 C

11.3 C

11.7 C

24 W/m

0.00 mm

08:20

11.7 C

993.3 hpa

87 %

4.8 km/h aus 117

16.1 km/h aus S

9.6 C

11.7 C

11.7 C

11.7 C

28 W/m

0.00 mm

08:25

11.7 C

993.3 hpa

87 %

4.8 km/h aus 117

16.1 km/h aus SE

9.6 C

11.7 C

11.7 C

11.7 C

32 W/m

0.00 mm

08:30

11.7 C

993.5 hpa

87 %

4.8 km/h aus 115

16.1 km/h aus SE

9.6 C

11.7 C

11.7 C

11.7 C

41 W/m

0.00 mm

08:35

11.7 C

993.5 hpa

87 %

4.8 km/h aus 115

16.1 km/h aus SSE

9.6 C

11.7 C

11.7 C

11.7 C

46 W/m

0.00 mm

08:40

11.7 C

993.5 hpa

87 %

4.8 km/h aus 117

16.1 km/h aus S

9.6 C

11.7 C

11.7 C

11.7 C

54 W/m

0.00 mm

08:45

11.8 C

993.8 hpa

86 %

8.0 km/h aus 117

19.3 km/h aus S

9.5 C

11.0 C

11.1 C

11.7 C

50 W/m

0.00 mm

08:50

11.8 C

993.8 hpa

86 %

4.8 km/h aus 117

14.5 km/h aus SSW

9.5 C

11.7 C

11.8 C

11.7 C

56 W/m

0.00 mm

08:55

11.8 C

993.8 hpa

86 %

6.4 km/h aus 115

20.9 km/h aus S

9.6 C

11.4 C

11.5 C

11.8 C

69 W/m

0.00 mm

09:00

11.8 C

993.5 hpa

85 %

4.8 km/h aus 115

16.1 km/h aus SSW

9.4 C

11.8 C

11.8 C

11.8 C

90 W/m

0.00 mm

09:05

11.9 C

993.5 hpa

85 %

4.8 km/h aus 117

11.3 km/h aus S

9.4 C

11.8 C

11.9 C

11.8 C

103 W/m

0.00 mm

09:10

12.0 C

993.5 hpa

85 %

6.4 km/h aus 117

19.3 km/h aus SW

9.6 C

11.6 C

11.7 C

11.9 C

114 W/m

0.00 mm

09:15

12.1 C

993.5 hpa

84 %

9.7 km/h aus 117

20.9 km/h aus S

9.5 C

11.2 C

11.2 C

12.1 C

126 W/m

0.00 mm

09:20

12.2 C

993.5 hpa

83 %

11.3 km/h aus 115

22.5 km/h aus WSW

9.4 C

10.9 C

11.1 C

12.1 C

144 W/m

0.00 mm

09:25

12.4 C

993.5 hpa

81 %

9.7 km/h aus 114

19.3 km/h aus SSW

9.2 C

11.4 C

11.6 C

12.2 C

152 W/m

0.00 mm

09:30

12.6 C

993.7 hpa

81 %

8.0 km/h aus 117

22.5 km/h aus WSW

9.4 C

11.9 C

12.1 C

12.4 C

153 W/m

0.00 mm

09:35

12.5 C

993.7 hpa

79 %

14.5 km/h aus 115

25.7 km/h aus SW

9.0 C

10.5 C

10.7 C

12.3 C

155 W/m

0.00 mm

09:40

12.5 C

993.7 hpa

77 %

12.9 km/h aus 111

25.7 km/h aus SW

8.6 C

10.8 C

11.1 C

12.3 C

198 W/m

0.00 mm

09:45

12.6 C

993.9 hpa

76 %

8.0 km/h aus 112

20.9 km/h aus SSW

8.5 C

11.8 C

12.1 C

12.3 C

229 W/m

0.00 mm

09:50

12.7 C

993.9 hpa

75 %

11.3 km/h aus 111

27.4 km/h aus SSW

8.4 C

11.4 C

11.7 C

12.4 C

257 W/m

0.00 mm

09:55

12.8 C

993.9 hpa

75 %

12.9 km/h aus 114

25.7 km/h aus S

8.5 C

11.1 C

11.4 C

12.5 C

274 W/m

0.00 mm

10:00

12.8 C

993.8 hpa

75 %

9.7 km/h aus 117

25.7 km/h aus SSW

8.5 C

11.7 C

12.0 C

12.5 C

197 W/m

0.00 mm

10:05

12.7 C

993.8 hpa

75 %

12.9 km/h aus 116

25.7 km/h aus S

8.3 C

11.0 C

11.3 C

12.4 C

243 W/m

0.00 mm

10:10

12.8 C

993.8 hpa

75 %

9.7 km/h aus 115

20.9 km/h aus SSE

8.5 C

11.7 C

12.0 C

12.5 C

306 W/m

0.00 mm

10:15

12.9 C

993.8 hpa

74 %

9.7 km/h aus 114

20.9 km/h aus SSW

8.4 C

11.8 C

12.1 C

12.6 C

224 W/m

0.00 mm

10:20

12.8 C

993.8 hpa

75 %

12.9 km/h aus 117

22.5 km/h aus SSW

8.5 C

11.2 C

11.4 C

12.6 C

198 W/m

0.00 mm

10:25

12.8 C

993.8 hpa

75 %

12.9 km/h aus 118

22.5 km/h aus S

8.5 C

11.1 C

11.4 C

12.5 C

228 W/m

0.00 mm

10:30

12.7 C

993.9 hpa

75 %

14.5 km/h aus 117

29.0 km/h aus SE

8.4 C

10.7 C

10.9 C

12.4 C

195 W/m

0.00 mm

10:35

12.7 C

993.9 hpa

75 %

11.3 km/h aus 116

24.1 km/h aus S

8.3 C

11.4 C

11.7 C

12.4 C

258 W/m

0.00 mm

10:40

13.2 C

993.9 hpa

72 %

12.9 km/h aus 114

25.7 km/h aus S

8.2 C

11.4 C

11.8 C

12.8 C

404 W/m

0.25 mm

10:45

13.6 C

994.0 hpa

71 %

9.7 km/h aus 116

22.5 km/h aus S

8.4 C

12.6 C

13.0 C

13.2 C

475 W/m

0.00 mm

10:50

13.7 C

994.0 hpa

70 %

8.0 km/h aus 117

24.1 km/h aus SSE

8.3 C

12.9 C

13.4 C

13.3 C

443 W/m

0.00 mm

10:55

13.3 C

994.0 hpa

68 %

16.1 km/h aus 117

27.4 km/h aus S

7.5 C

10.8 C

11.3 C

12.8 C

150 W/m

0.00 mm

11:00

12.8 C

994.2 hpa

69 %

14.5 km/h aus 113

27.4 km/h aus S

7.3 C

10.6 C

11.1 C

12.4 C

164 W/m

0.00 mm

11:05

12.9 C

994.2 hpa

68 %

14.5 km/h aus 111

25.7 km/h aus SE

7.2 C

10.7 C

11.2 C

12.4 C

249 W/m

0.00 mm

11:10

13.1 C

994.2 hpa

68 %

11.3 km/h aus 116

27.4 km/h aus SSW

7.3 C

11.6 C

12.1 C

12.6 C

261 W/m

0.00 mm

11:15

13.4 C

994.1 hpa

67 %

8.0 km/h aus 117

25.7 km/h aus SSW

7.4 C

12.5 C

13.0 C

12.9 C

407 W/m

0.00 mm

11:20

13.9 C

994.1 hpa

67 %

11.3 km/h aus 116

25.7 km/h aus SSW

7.9 C

12.7 C

13.2 C

13.4 C

446 W/m

0.00 mm

11:25

13.8 C

994.1 hpa

65 %

12.9 km/h aus 113

25.7 km/h aus SSW

7.3 C

12.1 C

12.6 C

13.2 C

462 W/m

0.00 mm

11:30

13.9 C

994.2 hpa

64 %

14.5 km/h aus 116

33.8 km/h aus SSW

7.2 C

11.7 C

12.3 C

13.3 C

477 W/m

0.00 mm

11:35

14.3 C

994.2 hpa

61 %

17.7 km/h aus 115

30.6 km/h aus S

6.9 C

11.4 C

12.1 C

13.6 C

507 W/m

0.00 mm

11:40

14.0 C

994.2 hpa

60 %

16.1 km/h aus 116

29.0 km/h aus S

6.4 C

11.3 C

12.1 C

13.3 C

458 W/m

0.00 mm

11:45

13.7 C

994.0 hpa

61 %

16.1 km/h aus 115

30.6 km/h aus S

6.3 C

11.0 C

11.7 C

13.0 C

207 W/m

0.00 mm

11:50

13.6 C

994.0 hpa

61 %

14.5 km/h aus 113

30.6 km/h aus S

6.2 C

11.3 C

12.0 C

12.9 C

368 W/m

0.00 mm

11:55

14.1 C

994.0 hpa

62 %

11.3 km/h aus 116

24.1 km/h aus SW

6.9 C

12.7 C

13.4 C

13.4 C

450 W/m

0.00 mm

12:00

14.5 C

993.6 hpa

61 %

14.5 km/h aus 114

24.1 km/h aus S

7.1 C

12.3 C

13.0 C

13.8 C

441 W/m

0.00 mm

12:05

14.6 C

993.6 hpa

59 %

14.5 km/h aus 115

27.4 km/h aus SSE

6.6 C

12.3 C

13.1 C

13.8 C

506 W/m

0.00 mm

12:10

14.2 C

993.6 hpa

61 %

11.3 km/h aus 115

22.5 km/h aus SSW

6.8 C

12.8 C

13.5 C

13.6 C

418 W/m

0.00 mm

12:15

14.1 C

993.8 hpa

62 %

14.5 km/h aus 109

24.1 km/h aus SSW

6.9 C

11.9 C

12.6 C

13.4 C

244 W/m

0.00 mm

12:20

14.5 C

993.8 hpa

63 %

11.3 km/h aus 114

27.4 km/h aus SW

7.5 C

13.2 C

13.8 C

13.9 C

549 W/m

0.00 mm

12:25

14.5 C

993.8 hpa

62 %

12.9 km/h aus 114

27.4 km/h aus S

7.3 C

12.8 C

13.4 C

13.8 C

250 W/m

0.00 mm

12:30

14.3 C

993.8 hpa

60 %

11.3 km/h aus 114

24.1 km/h aus SSW

6.6 C

12.8 C

13.6 C

13.6 C

198 W/m

0.00 mm

12:35

14.3 C

993.8 hpa

62 %

11.3 km/h aus 114

24.1 km/h aus SSW

7.1 C

13.0 C

13.7 C

13.7 C

359 W/m

0.00 mm

12:40

14.1 C

993.8 hpa

59 %

11.3 km/h aus 110

25.7 km/h aus S

6.2 C

12.6 C

13.4 C

13.3 C

184 W/m

0.00 mm

12:45

14.7 C

993.8 hpa

58 %

14.5 km/h aus 113

25.7 km/h aus SSE

6.5 C

12.4 C

13.2 C

13.9 C

601 W/m

0.00 mm

12:50

15.0 C

993.8 hpa

54 %

14.5 km/h aus 111

29.0 km/h aus S

5.8 C

12.7 C

13.6 C

14.1 C

280 W/m

0.00 mm

12:55

15.1 C

993.8 hpa

56 %

12.9 km/h aus 110

33.8 km/h aus SSE

6.3 C

13.3 C

14.1 C

14.2 C

285 W/m

0.00 mm

13:00

15.9 C

993.7 hpa

54 %

12.9 km/h aus 110

25.7 km/h aus SSW

6.6 C

14.2 C

15.1 C

14.9 C

567 W/m

0.00 mm

13:05

15.7 C

993.7 hpa

52 %

12.9 km/h aus 114

27.4 km/h aus SSW

5.8 C

13.8 C

14.8 C

14.7 C

534 W/m

0.00 mm

13:10

15.4 C

993.7 hpa

53 %

12.9 km/h aus 112

25.7 km/h aus SE

5.9 C

13.6 C

14.6 C

14.4 C

379 W/m

0.00 mm

13:15

15.1 C

993.5 hpa

54 %

11.3 km/h aus 115

22.5 km/h aus SSW

5.9 C

13.6 C

14.6 C

14.2 C

351 W/m

0.00 mm

13:20

14.8 C

993.5 hpa

55 %

12.9 km/h aus 114

27.4 km/h aus SSW

5.9 C

12.9 C

13.8 C

13.9 C

226 W/m

0.00 mm

13:25

14.6 C

993.5 hpa

54 %

14.5 km/h aus 113

30.6 km/h aus S

5.3 C

12.1 C

13.1 C

13.6 C

226 W/m

0.00 mm

13:30

14.3 C

993.5 hpa

55 %

14.5 km/h aus 112

29.0 km/h aus SW

5.4 C

11.8 C

12.7 C

13.4 C

165 W/m

0.00 mm

13:35

14.2 C

993.5 hpa

55 %

16.1 km/h aus 111

29.0 km/h aus SW

5.3 C

11.4 C

12.3 C

13.3 C

242 W/m

0.00 mm

13:40

14.3 C

993.5 hpa

54 %

11.3 km/h aus 114

20.9 km/h aus SSE

5.1 C

12.6 C

13.6 C

13.3 C

188 W/m

0.00 mm

13:45

14.2 C

993.5 hpa

54 %

11.3 km/h aus 109

24.1 km/h aus SSW

5.0 C

12.6 C

13.5 C

13.3 C

175 W/m

0.00 mm

13:50

14.3 C

993.5 hpa

53 %

14.5 km/h aus 112

30.6 km/h aus SSW

4.8 C

11.8 C

12.7 C

13.3 C

161 W/m

0.00 mm

13:55

14.2 C

993.5 hpa

53 %

12.9 km/h aus 110

30.6 km/h aus SW

4.8 C

12.2 C

13.1 C

13.3 C

200 W/m

0.00 mm

14:00

14.3 C

993.6 hpa

55 %

14.5 km/h aus 114

27.4 km/h aus SW

5.4 C

11.8 C

12.7 C

13.4 C

225 W/m

0.00 mm

14:05

14.3 C

993.6 hpa

55 %

14.5 km/h aus 112

25.7 km/h aus S

5.4 C

11.9 C

12.8 C

13.4 C

229 W/m

0.00 mm

14:10

14.4 C

993.6 hpa

56 %

9.7 km/h aus 112

24.1 km/h aus SW

5.7 C

13.1 C

13.9 C

13.6 C

242 W/m

0.00 mm

14:15

14.5 C

993.8 hpa

55 %

14.5 km/h aus 111

24.1 km/h aus S

5.6 C

12.1 C

13.0 C

13.6 C

239 W/m

0.00 mm

14:20

14.4 C

993.8 hpa

55 %

17.7 km/h aus 112

35.4 km/h aus S

5.5 C

11.3 C

12.2 C

13.6 C

202 W/m

0.00 mm

14:25

14.4 C

993.8 hpa

55 %

14.5 km/h aus 109

27.4 km/h aus S

5.5 C

12.1 C

12.9 C

13.6 C

228 W/m

0.00 mm

14:30

14.7 C

993.8 hpa

55 %

11.3 km/h aus 113

29.0 km/h aus S

5.7 C

13.2 C

14.1 C

13.8 C

227 W/m

0.00 mm

14:35

14.6 C

993.8 hpa

56 %

14.5 km/h aus 111

25.7 km/h aus S

5.9 C

12.3 C

13.2 C

13.8 C

182 W/m

0.00 mm

14:40

14.5 C

993.8 hpa

57 %

14.5 km/h aus 113

24.1 km/h aus S

6.1 C

12.2 C

13.0 C

13.7 C

197 W/m

0.00 mm

14:45

14.5 C

993.5 hpa

57 %

8.0 km/h aus 115

19.3 km/h aus S

6.1 C

13.4 C

14.3 C

13.7 C

158 W/m

0.00 mm

14:50

14.5 C

993.5 hpa

57 %

12.9 km/h aus 111

25.7 km/h aus SSE

6.1 C

12.6 C

13.4 C

13.7 C

164 W/m

0.00 mm

14:55

14.5 C

993.5 hpa

56 %

16.1 km/h aus 108

27.4 km/h aus SSE

5.8 C

11.8 C

12.6 C

13.7 C

136 W/m

0.00 mm

15:00

14.6 C

993.6 hpa

55 %

8.0 km/h aus 108

25.7 km/h aus SSE

5.6 C

13.4 C

14.3 C

13.7 C

143 W/m

0.00 mm

15:05

14.4 C

993.6 hpa

57 %

12.9 km/h aus 115

25.7 km/h aus S

6.0 C

12.6 C

13.4 C

13.6 C

163 W/m

0.00 mm

15:10

14.4 C

993.6 hpa

56 %

12.9 km/h aus 115

20.9 km/h aus SSE

5.8 C

12.6 C

13.4 C

13.6 C

160 W/m

0.00 mm

15:15

14.3 C

993.5 hpa

57 %

11.3 km/h aus 117

20.9 km/h aus SSE

5.9 C

12.8 C

13.7 C

13.5 C

124 W/m

0.00 mm

15:20

14.2 C

993.5 hpa

56 %

9.7 km/h aus 114

19.3 km/h aus SSW

5.5 C

12.8 C

13.7 C

13.3 C

158 W/m

0.00 mm

15:25

14.3 C

993.5 hpa

57 %

11.3 km/h aus 116

20.9 km/h aus SE

5.9 C

12.7 C

13.6 C

13.4 C

170 W/m

0.00 mm

15:30

14.4 C

993.5 hpa

57 %

14.5 km/h aus 115

22.5 km/h aus SSE

6.0 C

12.1 C

12.9 C

13.6 C

254 W/m

0.00 mm

15:35

14.7 C

993.5 hpa

56 %

14.5 km/h aus 113

25.7 km/h aus SE

6.0 C

12.4 C

13.2 C

13.8 C

282 W/m

0.00 mm

15:40

15.0 C

993.5 hpa

55 %

12.9 km/h aus 113

25.7 km/h aus SSE

6.0 C

13.2 C

14.1 C

14.1 C

329 W/m

0.00 mm

15:45

15.1 C

993.4 hpa

54 %

11.3 km/h aus 111

24.1 km/h aus SSE

5.9 C

13.6 C

14.6 C

14.2 C

312 W/m

0.00 mm

15:50

15.4 C

993.4 hpa

53 %

17.7 km/h aus 107

30.6 km/h aus S

5.9 C

12.3 C

13.3 C

14.4 C

346 W/m

0.00 mm

15:55

15.2 C

993.4 hpa

53 %

17.7 km/h aus 99

27.4 km/h aus SE

5.6 C

12.1 C

13.1 C

14.2 C

247 W/m

0.00 mm

16:00

15.2 C

993.2 hpa

54 %

11.3 km/h aus 112

20.9 km/h aus S

5.9 C

13.7 C

14.7 C

14.2 C

204 W/m

0.00 mm

16:05

14.7 C

993.2 hpa

55 %

11.3 km/h aus 114

22.5 km/h aus S

5.8 C

13.2 C

14.1 C

13.8 C

147 W/m

0.00 mm

16:10

14.8 C

993.2 hpa

57 %

11.3 km/h aus 109

29.0 km/h aus SSE

6.3 C

13.3 C

14.2 C

13.9 C

182 W/m

0.00 mm

16:15

15.1 C

993.0 hpa

55 %

19.3 km/h aus 105

27.4 km/h aus SE

6.1 C

11.8 C

12.7 C

14.2 C

191 W/m

0.00 mm

16:20

14.7 C

993.0 hpa

56 %

19.3 km/h aus 102

30.6 km/h aus SSE

6.0 C

11.3 C

12.2 C

13.8 C

133 W/m

0.00 mm

16:25

14.4 C

993.0 hpa

57 %

14.5 km/h aus 106

29.0 km/h aus SSE

6.0 C

12.1 C

12.9 C

13.6 C

168 W/m

0.00 mm

16:30

14.8 C

993.0 hpa

57 %

12.9 km/h aus 107

24.1 km/h aus SSE

6.3 C

12.9 C

13.8 C

13.9 C

192 W/m

0.00 mm

16:35

15.0 C

993.0 hpa

56 %

16.1 km/h aus 112

24.1 km/h aus SSE

6.3 C

12.4 C

13.2 C

14.2 C

205 W/m

0.00 mm

16:40

14.8 C

993.0 hpa

56 %

17.7 km/h aus 114

30.6 km/h aus S

6.1 C

11.8 C

12.7 C

14.0 C

200 W/m

0.00 mm

16:45

14.7 C

993.0 hpa

58 %

12.9 km/h aus 116

24.1 km/h aus SSE

6.5 C

12.9 C

13.7 C

13.9 C

196 W/m

0.00 mm

16:50

14.8 C

993.0 hpa

56 %

16.1 km/h aus 107

30.6 km/h aus S

6.1 C

12.2 C

13.0 C

14.0 C

252 W/m

0.00 mm

16:55

14.9 C

993.0 hpa

57 %

14.5 km/h aus 111

27.4 km/h aus SSE

6.4 C

12.7 C

13.5 C

14.1 C

241 W/m

0.00 mm

17:00

15.0 C

993.0 hpa

57 %

16.1 km/h aus 104

27.4 km/h aus SE

6.5 C

12.4 C

13.2 C

14.2 C

268 W/m

0.00 mm

17:05

15.1 C

993.0 hpa

57 %

12.9 km/h aus 114

29.0 km/h aus SSE

6.6 C

13.3 C

14.1 C

14.2 C

178 W/m

0.00 mm

17:10

14.8 C

993.0 hpa

56 %

16.1 km/h aus 108

27.4 km/h aus S

6.1 C

12.1 C

12.9 C

13.9 C

122 W/m

0.00 mm

17:15

14.6 C

993.0 hpa

56 %

11.3 km/h aus 116

19.3 km/h aus S

5.9 C

13.1 C

13.9 C

13.7 C

105 W/m

0.00 mm

17:20

14.4 C

993.0 hpa

57 %

11.3 km/h aus 112

24.1 km/h aus S

6.0 C

12.9 C

13.8 C

13.6 C

111 W/m

0.00 mm

17:25

14.4 C

993.0 hpa

56 %

12.9 km/h aus 115

22.5 km/h aus S

5.7 C

12.5 C

13.3 C

13.6 C

120 W/m

0.00 mm

17:30

14.3 C

993.0 hpa

57 %

14.5 km/h aus 113

25.7 km/h aus SSE

5.9 C

12.0 C

12.8 C

13.5 C

118 W/m

0.00 mm

17:35

14.3 C

993.0 hpa

58 %

12.9 km/h aus 115

24.1 km/h aus S

6.1 C

12.4 C

13.2 C

13.5 C

107 W/m

0.00 mm

17:40

14.2 C

993.0 hpa

58 %

12.9 km/h aus 112

19.3 km/h aus S

6.1 C

12.3 C

13.1 C

13.4 C

113 W/m

0.00 mm

17:45

14.2 C

993.0 hpa

59 %

8.0 km/h aus 114

17.7 km/h aus SE

6.3 C

13.1 C

13.9 C

13.4 C

96 W/m

0.00 mm

17:50

14.1 C

993.0 hpa

59 %

11.3 km/h aus 116

22.5 km/h aus SSE

6.2 C

12.6 C

13.4 C

13.3 C

88 W/m

0.00 mm

17:55

14.1 C

993.0 hpa

59 %

8.0 km/h aus 117

20.9 km/h aus SSE

6.2 C

13.0 C

13.8 C

13.3 C

80 W/m

0.00 mm

18:00

14.1 C

993.0 hpa

59 %

9.7 km/h aus 117

17.7 km/h aus SE

6.2 C

12.8 C

13.6 C

13.3 C

59 W/m

0.00 mm

18:05

14.1 C

993.0 hpa

59 %

6.4 km/h aus 116

19.3 km/h aus SSE

6.2 C

13.3 C

14.1 C

13.3 C

51 W/m

0.00 mm

18:10

14.1 C

993.0 hpa

59 %

9.7 km/h aus 113

19.3 km/h aus SSE

6.2 C

12.8 C

13.6 C

13.3 C

54 W/m

0.00 mm

18:15

14.0 C

993.0 hpa

60 %

4.8 km/h aus 115

16.1 km/h aus SSE

6.4 C

13.3 C

14.0 C

13.3 C

57 W/m

0.00 mm

18:20

14.0 C

993.0 hpa

60 %

4.8 km/h aus 116

19.3 km/h aus SSE

6.4 C

13.3 C

14.0 C

13.3 C

54 W/m

0.00 mm

18:25

13.9 C

993.0 hpa

60 %

6.4 km/h aus 117

17.7 km/h aus S

6.3 C

13.2 C

13.9 C

13.2 C

41 W/m

0.00 mm

18:30

13.9 C

993.0 hpa

61 %

6.4 km/h aus 114

16.1 km/h aus SSE

6.5 C

13.3 C

13.9 C

13.3 C

29 W/m

0.00 mm

18:35

13.9 C

993.0 hpa

61 %

6.4 km/h aus 114

16.1 km/h aus SSE

6.5 C

13.2 C

13.9 C

13.2 C

23 W/m

0.00 mm

18:40

13.8 C

993.0 hpa

61 %

6.4 km/h aus 117

16.1 km/h aus SE

6.4 C

13.2 C

13.8 C

13.2 C

20 W/m

0.00 mm

18:45

13.8 C

993.1 hpa

61 %

6.4 km/h aus 116

17.7 km/h aus SSE

6.4 C

13.1 C

13.8 C

13.1 C

18 W/m

0.00 mm

18:50

13.7 C

993.1 hpa

62 %

3.2 km/h aus 107

11.3 km/h aus SSE

6.6 C

13.1 C

13.7 C

13.1 C

12 W/m

0.00 mm

18:55

13.7 C

993.1 hpa

62 %

3.2 km/h aus 102

11.3 km/h aus SE

6.6 C

13.1 C

13.7 C

13.1 C

11 W/m

0.00 mm

19:00

13.6 C

993.1 hpa

62 %

3.2 km/h aus 106

11.3 km/h aus ESE

6.5 C

12.9 C

13.6 C

12.9 C

12 W/m

0.00 mm

19:05

13.6 C

993.1 hpa

62 %

4.8 km/h aus 103

11.3 km/h aus SE

6.4 C

12.9 C

13.6 C

12.9 C

10 W/m

0.00 mm

19:10

13.5 C

993.1 hpa

63 %

3.2 km/h aus 101

8.0 km/h aus SE

6.6 C

12.9 C

13.5 C

12.9 C

6 W/m

0.00 mm

19:15

13.4 C

993.0 hpa

63 %

1.6 km/h aus 92

6.4 km/h aus SE

6.5 C

12.8 C

13.4 C

12.8 C

3 W/m

0.00 mm

19:20

13.3 C

993.0 hpa

63 %

1.6 km/h aus 95

4.8 km/h aus ESE

6.4 C

12.7 C

13.3 C

12.7 C

0 W/m

0.00 mm

19:25

13.3 C

993.0 hpa

63 %

1.6 km/h aus 91

6.4 km/h aus ESE

6.4 C

12.7 C

13.3 C

12.7 C

0 W/m

0.00 mm

19:30

13.2 C

993.0 hpa

63 %

1.6 km/h aus 95

6.4 km/h aus ESE

6.3 C

12.6 C

13.2 C

12.6 C

0 W/m

0.00 mm

19:35

13.1 C

993.0 hpa

63 %

1.6 km/h aus 92

4.8 km/h aus ESE

6.2 C

12.4 C

13.1 C

12.4 C

0 W/m

0.00 mm

19:40

12.9 C

993.0 hpa

64 %

1.6 km/h aus 98

4.8 km/h aus E

6.3 C

12.3 C

12.9 C

12.3 C

0 W/m

0.00 mm

19:45

12.8 C

993.1 hpa

64 %

1.6 km/h aus 97

3.2 km/h aus E

6.2 C

12.2 C

12.8 C

12.2 C

0 W/m

0.00 mm

19:50

12.7 C

993.1 hpa

64 %

1.6 km/h aus 95

8.0 km/h aus E

6.1 C

12.1 C

12.7 C

12.1 C

0 W/m

0.00 mm

19:55

12.7 C

993.1 hpa

64 %

1.6 km/h aus 94

3.2 km/h aus ESE

6.0 C

12.1 C

12.7 C

12.1 C

0 W/m

0.00 mm

20:00

12.6 C

993.0 hpa

65 %

0.0 km/h aus 96

3.2 km/h aus ESE

6.2 C

12.1 C

12.6 C

12.1 C

0 W/m

0.00 mm

20:05

12.6 C

993.0 hpa

65 %

1.6 km/h aus 96

6.4 km/h aus E

6.1 C

12.0 C

12.6 C

12.0 C

0 W/m

0.00 mm

20:10

12.5 C

993.0 hpa

66 %

1.6 km/h aus 95

4.8 km/h aus ESE

6.3 C

12.0 C

12.5 C

12.0 C

0 W/m

0.00 mm

20:15

12.4 C

993.2 hpa

66 %

1.6 km/h aus 91

6.4 km/h aus ESE

6.3 C

11.9 C

12.4 C

11.9 C

0 W/m

0.00 mm

20:20

12.4 C

993.2 hpa

66 %

1.6 km/h aus 92

6.4 km/h aus ESE

6.2 C

11.9 C

12.4 C

11.9 C

0 W/m

0.00 mm

20:25

12.3 C

993.2 hpa

66 %

1.6 km/h aus 93

4.8 km/h aus ESE

6.2 C

11.8 C

12.3 C

11.8 C

0 W/m

0.00 mm

20:30

12.3 C

993.3 hpa

67 %

1.6 km/h aus 99

8.0 km/h aus ESE

6.3 C

11.8 C

12.3 C

11.8 C

0 W/m

0.00 mm

20:35

12.3 C

993.3 hpa

67 %

3.2 km/h aus 97

11.3 km/h aus ESE

6.3 C

11.8 C

12.3 C

11.8 C

0 W/m

0.00 mm

20:40

12.2 C

993.3 hpa

67 %

3.2 km/h aus 90

9.7 km/h aus ESE

6.3 C

11.7 C

12.2 C

11.7 C

0 W/m

0.00 mm

20:45

12.2 C

993.2 hpa

68 %

3.2 km/h aus 101

12.9 km/h aus SE

6.4 C

11.7 C

12.2 C

11.7 C

0 W/m

0.00 mm

20:50

12.2 C

993.2 hpa

68 %

4.8 km/h aus 98

14.5 km/h aus ESE

6.4 C

11.7 C

12.2 C

11.7 C

0 W/m

0.00 mm

20:55

12.2 C

993.2 hpa

68 %

6.4 km/h aus 107

17.7 km/h aus SE

6.4 C

11.4 C

11.9 C

11.7 C

0 W/m

0.00 mm

21:00

12.2 C

993.3 hpa

68 %

6.4 km/h aus 98

19.3 km/h aus SE

6.4 C

11.4 C

11.9 C

11.7 C

0 W/m

0.00 mm

21:05

12.2 C

993.3 hpa

69 %

4.8 km/h aus 104

19.3 km/h aus ESE

6.6 C

11.7 C

12.2 C

11.7 C

0 W/m

0.00 mm

21:10

12.2 C

993.3 hpa

69 %

8.0 km/h aus 108

16.1 km/h aus SE

6.6 C

11.1 C

11.6 C

11.7 C

0 W/m

0.00 mm

21:15

12.2 C

993.1 hpa

69 %

8.0 km/h aus 105

22.5 km/h aus SE

6.7 C

11.2 C

11.6 C

11.8 C

0 W/m

0.00 mm

21:20

12.2 C

993.1 hpa

69 %

8.0 km/h aus 109

20.9 km/h aus SE

6.7 C

11.2 C

11.6 C

11.8 C

0 W/m

0.00 mm

21:25

12.2 C

993.1 hpa

69 %

8.0 km/h aus 101

17.7 km/h aus SE

6.7 C

11.2 C

11.6 C

11.8 C

0 W/m

0.00 mm

21:30

12.3 C

993.1 hpa

68 %

8.0 km/h aus 101

19.3 km/h aus SE

6.5 C

11.2 C

11.7 C

11.8 C

0 W/m

0.00 mm

21:35

12.3 C

993.1 hpa

68 %

8.0 km/h aus 103

19.3 km/h aus SE

6.5 C

11.2 C

11.7 C

11.8 C

0 W/m

0.00 mm

21:40

12.3 C

993.1 hpa

68 %

8.0 km/h aus 110

22.5 km/h aus SE

6.5 C

11.2 C

11.7 C

11.8 C

0 W/m

0.00 mm

21:45

12.3 C

993.0 hpa

69 %

8.0 km/h aus 113

16.1 km/h aus SE

6.8 C

11.2 C

11.7 C

11.8 C

0 W/m

0.00 mm

21:50

12.2 C

993.0 hpa

69 %

4.8 km/h aus 112

14.5 km/h aus ESE

6.7 C

11.8 C

12.2 C

11.8 C

0 W/m

0.00 mm

21:55

12.2 C

993.0 hpa

69 %

8.0 km/h aus 108

19.3 km/h aus SSE

6.6 C

11.1 C

11.6 C

11.7 C

0 W/m

0.00 mm

22:00

12.1 C

993.0 hpa

69 %

6.4 km/h aus 110

16.1 km/h aus SE

6.5 C

11.3 C

11.7 C

11.6 C

0 W/m

0.00 mm

22:05

12.0 C

993.0 hpa

69 %

6.4 km/h aus 108

16.1 km/h aus SE

6.5 C

11.2 C

11.7 C

11.6 C

0 W/m

0.00 mm

22:10

11.9 C

993.0 hpa

70 %

8.0 km/h aus 116

16.1 km/h aus SE

6.6 C

10.8 C

11.2 C

11.5 C

0 W/m

0.00 mm

22:15

11.8 C

993.0 hpa

70 %

8.0 km/h aus 113

17.7 km/h aus SE

6.5 C

10.8 C

11.2 C

11.4 C

0 W/m

0.00 mm

22:20

11.7 C

993.0 hpa

70 %

6.4 km/h aus 105

17.7 km/h aus SE

6.4 C

10.9 C

11.3 C

11.3 C

0 W/m

0.00 mm

22:25

11.7 C

993.0 hpa

71 %

9.7 km/h aus 110

19.3 km/h aus SE

6.6 C

10.3 C

10.7 C

11.3 C

0 W/m

0.00 mm

22:30

11.6 C

993.0 hpa

71 %

8.0 km/h aus 109

19.3 km/h aus SSE

6.5 C

10.6 C

10.9 C

11.3 C

0 W/m

0.00 mm

22:35

11.6 C

993.0 hpa

71 %

8.0 km/h aus 107

16.1 km/h aus ESE

6.5 C

10.5 C

10.8 C

11.2 C

0 W/m

0.00 mm

22:40

11.5 C

993.0 hpa

71 %

8.0 km/h aus 109

17.7 km/h aus SE

6.4 C

10.4 C

10.8 C

11.2 C

0 W/m

0.00 mm

22:45

11.5 C

993.0 hpa

71 %

6.4 km/h aus 105

17.7 km/h aus SSE

6.4 C

10.8 C

11.1 C

11.2 C

0 W/m

0.00 mm

22:50

11.5 C

993.0 hpa

72 %

9.7 km/h aus 99

19.3 km/h aus SE

6.6 C

10.1 C

10.4 C

11.2 C

0 W/m

0.00 mm

22:55

11.6 C

993.0 hpa

72 %

8.0 km/h aus 112

22.5 km/h aus SSE

6.7 C

10.5 C

10.8 C

11.2 C

0 W/m

0.00 mm

23:00

11.6 C

993.0 hpa

72 %

9.7 km/h aus 112

20.9 km/h aus SE

6.7 C

10.2 C

10.6 C

11.2 C

0 W/m

0.00 mm

23:05

11.6 C

993.0 hpa

72 %

12.9 km/h aus 110

22.5 km/h aus SSE

6.7 C

9.7 C

10.0 C

11.3 C

0 W/m

0.00 mm

23:10

11.6 C

993.0 hpa

72 %

9.7 km/h aus 110

22.5 km/h aus SE

6.7 C

10.3 C

10.6 C

11.3 C

0 W/m

0.00 mm

23:15

11.7 C

993.0 hpa

72 %

16.1 km/h aus 112

27.4 km/h aus SE

6.8 C

9.0 C

9.3 C

11.3 C

0 W/m

0.00 mm

23:20

11.7 C

993.0 hpa

72 %

14.5 km/h aus 112

25.7 km/h aus S

6.8 C

9.3 C

9.7 C

11.3 C

0 W/m

0.00 mm

23:25

11.7 C

993.0 hpa

72 %

11.3 km/h aus 113

20.9 km/h aus SE

6.8 C

10.1 C

10.4 C

11.3 C

0 W/m

0.00 mm

23:30

11.7 C

992.9 hpa

72 %

8.0 km/h aus 117

17.7 km/h aus SSE

6.8 C

10.6 C

10.9 C

11.3 C

0 W/m

0.00 mm

23:35

11.7 C

992.9 hpa

72 %

8.0 km/h aus 114

22.5 km/h aus SSE

6.8 C

10.6 C

10.9 C

11.3 C

0 W/m

0.00 mm

23:40

11.6 C

992.9 hpa

72 %

8.0 km/h aus 115

19.3 km/h aus SSE

6.7 C

10.6 C

10.9 C

11.3 C

0 W/m

0.00 mm

23:45

11.6 C

992.6 hpa

72 %

6.4 km/h aus 114

19.3 km/h aus S

6.7 C

10.9 C

11.2 C

11.3 C

0 W/m

0.00 mm

23:50

11.6 C

992.6 hpa

72 %

8.0 km/h aus 117

19.3 km/h aus SSE

6.7 C

10.5 C

10.8 C

11.2 C

0 W/m

0.00 mm

23:55

11.5 C

992.6 hpa

72 %

6.4 km/h aus 117

16.1 km/h aus S

6.6 C

10.8 C

11.1 C

11.2 C

0 W/m

0.00 mm